Location: ???? ?????????
(31.1304°N, 31.7111°E)
Time: 01:54:49
(UTC+00:00)

Cosmos 1709 Rocket - Pass Details

Date: 29 October 2020
Orbit: 949 x 1001 km, 82.9° (Epoch: 25 November)

Event Time Altitude Azimuth Distance (km) Brightness Sun altitude
Rises 16:56:27 0° 356° (N) 3,726 7.1 -24.0°
Reaches altitude 10° 16:59:00 10° 358° (N) 2,775 6.4 -24.5°
Maximum altitude 17:05:23 76° 84° (E) 1,030 3.9 -25.9°
Drops below altitude 10° 17:11:43 10° 170° (S) 2,752 6.2 -27.2°
Sets 17:14:13 0° 172° (S) 3,692 6.9 -27.8°
